Home > Weather > Alexandria > Past weeks

Flag for USA Past Weather in Alexandria, Virginia, USA — Yesterday and Last 2 Weeks

Now
84 °F

Passing clouds.


Feels Like: 96 °F
Forecast: 77 / 99 °F
Wind: 5 mph from Southeast

Location: Reagan National Airport

Current Time: Jul 25, 2016 at 4:13:50 AM

Latest Report: Jul 25, 2016 at 2:52 AM


Visibility: 9 mi

Pressure: 29.94 "Hg

Humidity: 85%

Dew Point: 79 °F

Location of AlexandriaLocation

Past Weather in Alexandria — Graph

°F

Alexandria Temperature Yesterday

Maximum temperature yesterday: 96 °F (at 3:52 PM)
Minimum temperature yesterday: 81 °F (at 3:52 AM)
Average temperature yesterday: 88 °F

High & Low Weather Summary for the Past Weeks

 TemperatureHumidityPressure
High98 °F (Jul 23, 4:52 PM)93% (Jul 20, 4:52 AM)30.22 "Hg (Jul 20, 4:52 AM)
Low70 °F (Jul 19, 11:52 PM)30% (Jul 11, 6:52 PM)29.85 "Hg (Jul 14, 5:52 PM)
Average83 °F64%30.04 "Hg
* Reported Jul 10 5:52 AM — Jul 25 2:52 AM, Alexandria, Weather by CustomWeather, © 2016

Note: Actual official high and low records may vary slightly from our data, if they occured in-between our weather recording intervals... More about our weather records

Advertising

Alexandria Weather History for the Previous 24 Hours

Scroll right to see more
 ConditionsComfort  
Time TempWeatherWind HumidityBarometerVisibility
2:52 AM
Mon, Jul 25
84 °FPassing clouds.5 mph85%29.94 "Hg9 mi
1:52 AM84 °FPartly cloudy.3 mph80%29.96 "Hg10 mi
12:52 AM85 °FPassing clouds.5 mph75%29.96 "Hg10 mi
11:52 PM
Sun, Jul 24
86 °FThunderstorms. Mostly cloudy.3 mph67%29.97 "Hg8 mi
10:52 PM86 °FOvercast.9 mph65%29.96 "Hg10 mi
9:52 PM87 °FPassing clouds.8 mph59%29.97 "Hg10 mi
8:52 PM89 °FPartly sunny.8 mph57%29.96 "Hg10 mi
7:52 PM90 °FPartly sunny.9 mph59%29.95 "Hg10 mi
6:52 PM93 °FPartly sunny.12 mph50%29.94 "Hg10 mi
5:52 PM95 °FPartly sunny.10 mph44%29.94 "Hg10 mi
4:52 PM96 °FPartly sunny.7 mph41%29.95 "Hg10 mi
3:52 PM96 °FPartly sunny.5 mph38%29.96 "Hg10 mi
2:52 PM95 °FPartly sunny.5 mph40%29.98 "Hg10 mi
1:55 PM94 °FPartly sunny.6 mph38%29.99 "Hg10 mi
12:52 PM93 °FPartly sunny.5 mph38%30.01 "Hg10 mi
11:52 AM92 °FPartly sunny.7 mph43%30.01 "Hg10 mi
10:52 AM91 °FScattered clouds.8 mph42%29.99 "Hg10 mi
9:52 AM88 °FScattered clouds.6 mph50%30.00 "Hg10 mi
8:52 AM85 °FScattered clouds.7 mph57%30.00 "Hg10 mi
7:52 AM82 °FScattered clouds.7 mph63%30.00 "Hg10 mi
6:52 AM81 °FPassing clouds.9 mph60%29.98 "Hg10 mi
5:52 AM82 °FPassing clouds.9 mph58%29.96 "Hg10 mi
4:52 AM81 °FPassing clouds.6 mph72%29.95 "Hg10 mi
Weather by CustomWeather, © 2016

See weather overviewHow to use our weather pages